User: anonymous   Login
Location: Granada
(37.1830°N, 3.6000°W)
Time: 09:46:18
(UTC+02:00)
Language:

Iridium 70 - Orbit

View from above orbital plane
View from above orbital plane
View from above satellite
View from above satellite

Ground track
Ground track

The orbit data is extracted from the following two-line orbital elements,

1 25342U 98032A   14296.47237991  .00000401  00000-0  13627-3 0   125
2 25342 086.3949 268.6667 0002065 100.8465 023.8407 14.34221037860392
Epoch (UTC): 23 October 2014 11:20:13
Eccentricity: 0.0002065
inclination: 86.3949°
perigee height: 776 km
apogee height: 779 km
right ascension of ascending node: 268.6667°
argument of perigee: 100.8465°
revolutions per day: 14.34221037
mean anomaly at epoch: 23.8407°
orbit number at epoch: 86039

The dashed part of the orbit path shows where the satellite is in the earth's shadow,  

DLR